Location: Campo Alegre
(10.1673°N, 67.4431°W)
Time: 06:11:49
(UTC+00:00)

SJ-6F - Visible Passes

Search period start: 13 July 2024 00:00
Search period end: 23 July 2024 00:00
Orbit: 560 x 578 km, 97.9° (Epoch: 12 July)

Date Brightness Start Highest point End Pass type
(mag) Time Alt. Az. Time Alt. Az. Time Alt. Az.
13 Jul 6.5 09:25:56 10° NE 09:29:21 27° E 09:32:44 10° SSE visible
14 Jul 6.5 09:27:28 10° NE 09:30:57 28° E 09:34:24 10° SSE visible
15 Jul 6.4 09:29:01 10° NE 09:32:33 29° E 09:36:03 10° SSE visible
16 Jul 6.3 09:30:34 10° NE 09:34:08 31° E 09:37:41 10° SSE visible
17 Jul 6.2 09:32:06 10° NE 09:35:43 32° E 09:39:19 10° SSE visible
18 Jul 6.1 09:33:38 10° NE 09:37:18 34° E 09:40:57 10° SSE visible
19 Jul 6.0 09:35:11 10° NNE 09:38:52 36° E 09:42:34 10° SSE visible
20 Jul 5.9 09:36:43 10° NNE 09:40:27 38° E 09:44:11 10° S visible
21 Jul 5.8 09:38:15 10° NNE 09:42:01 40° E 09:45:47 10° S visible
22 Jul 5.7 09:39:47 10° NNE 09:43:35 42° E 09:47:22 10° S visible
